Stündliche Wetter Holubivshchyna

Heute, 21 Juni, Montag

Zeit Temperatur Niederschläge Wind Luftdruck Luftfeuchtigkeit
00:00 +19°C° 0 mm 3 m/S 749 mmHg 88%
01:00 +19°C° 0 mm 3 m/S 748 mmHg 89%
02:00 +19°C° 0 mm 4 m/S 748 mmHg 89%
03:00 +19°C° 0 mm 4 m/S 748 mmHg 88%
04:00 +19°C° 0 mm 4 m/S 748 mmHg 86%
05:00 +19°C° 0 mm 4 m/S 748 mmHg 84%
06:00 +20°C° 0 mm 4 m/S 748 mmHg 81%
07:00 +22°C° 0 mm 4 m/S 748 mmHg 77%
08:00 +23°C° 0 mm 5 m/S 748 mmHg 74%
09:00 +25°C° 0 mm 5 m/S 748 mmHg 69%
10:00 +27°C° 0 mm 6 m/S 748 mmHg 65%
11:00 +28°C° 0 mm 6 m/S 748 mmHg 61%
12:00 +29°C° 0 mm 6 m/S 747 mmHg 59%
13:00 +29°C° 0 mm 6 m/S 747 mmHg 58%
14:00 +30°C° 0 mm 6 m/S 747 mmHg 56%
15:00 +30°C° 0 mm 6 m/S 747 mmHg 59%
16:00 +29°C° 0 mm 6 m/S 747 mmHg 62%
17:00 +29°C° 0 mm 5 m/S 747 mmHg 66%
18:00 +27°C° 0 mm 5 m/S 747 mmHg 72%
19:00 +26°C° 0 mm 4 m/S 748 mmHg 79%
20:00 +24°C° 0 mm 3 m/S 748 mmHg 86%
21:00 +22°C° 0 mm 4 m/S 748 mmHg 87%
22:00 +22°C° 0 mm 4 m/S 748 mmHg 88%
23:00 +21°C° 0 mm 4 m/S 748 mmHg 89%

Morgen, 22 Juni, Dienstag

Zeit Temperatur Niederschläge Wind Luftdruck Luftfeuchtigkeit
00:00 +20°C° 0 mm 4 m/S 748 mmHg 90%
01:00 +19°C° 0 mm 3 m/S 748 mmHg 91%
02:00 +18°C° 0 mm 3 m/S 748 mmHg 93%
03:00 +19°C° 0 mm 3 m/S 748 mmHg 91%
04:00 +19°C° 0 mm 3 m/S 748 mmHg 89%
05:00 +19°C° 0 mm 3 m/S 748 mmHg 87%
06:00 +21°C° 0 mm 3 m/S 748 mmHg 79%
07:00 +24°C° 0 mm 3 m/S 748 mmHg 72%
08:00 +26°C° 0 mm 4 m/S 748 mmHg 64%
09:00 +27°C° 0 mm 4 m/S 748 mmHg 61%
10:00 +29°C° 0 mm 5 m/S 748 mmHg 57%
11:00 +30°C° 0 mm 5 m/S 748 mmHg 53%
12:00 +30°C° 0 mm 5 m/S 748 mmHg 52%
13:00 +32°C° 0 mm 5 m/S 748 mmHg 52%
14:00 +32°C° 0 mm 5 m/S 748 mmHg 51%
15:00 +30°C° 0 mm 5 m/S 748 mmHg 56%
16:00 +29°C° 0 mm 5 m/S 748 mmHg 62%
17:00 +28°C° 0 mm 4 m/S 748 mmHg 67%
18:00 +27°C° 0 mm 4 m/S 749 mmHg 74%
19:00 +25°C° 0 mm 4 m/S 749 mmHg 80%
20:00 +24°C° 0 mm 3 m/S 749 mmHg 87%
21:00 +22°C° 0 mm 3 m/S 749 mmHg 89%
22:00 +22°C° 0 mm 3 m/S 749 mmHg 90%
23:00 +21°C° 0 mm 3 m/S 749 mmHg 92%

übermorgen, 23 Juni, Mittwoch

Zeit Temperatur Niederschläge Wind Luftdruck Luftfeuchtigkeit
00:00 +21°C° 0 mm 3 m/S 749 mmHg 92%
01:00 +20°C° 0 mm 3 m/S 749 mmHg 93%
02:00 +20°C° 0 mm 3 m/S 749 mmHg 93%
03:00 +20°C° 0 mm 3 m/S 749 mmHg 92%
04:00 +21°C° 0 mm 3 m/S 749 mmHg 91%
05:00 +21°C° 0 mm 3 m/S 749 mmHg 90%
06:00 +24°C° 0 mm 3 m/S 749 mmHg 83%
07:00 +26°C° 0 mm 4 m/S 749 mmHg 76%
08:00 +28°C° 0 mm 4 m/S 749 mmHg 68%
09:00 +29°C° 0 mm 4 m/S 749 mmHg 64%
10:00 +30°C° 0 mm 5 m/S 749 mmHg 60%
11:00 +32°C° 0 mm 5 m/S 749 mmHg 56%
12:00 +32°C° 0 mm 5 m/S 749 mmHg 56%
13:00 +33°C° 0 mm 5 m/S 749 mmHg 56%
14:00 +33°C° 0 mm 5 m/S 749 mmHg 56%
15:00 +33°C° 0 mm 5 m/S 749 mmHg 60%
16:00 +32°C° 0 mm 5 m/S 749 mmHg 64%
17:00 +32°C° 0 mm 4 m/S 749 mmHg 68%
18:00 +29°C° 0 mm 4 m/S 749 mmHg 74%
19:00 +28°C° 0 mm 3 m/S 749 mmHg 80%
20:00 +26°C° 0 mm 3 m/S 749 mmHg 86%
21:00 +25°C° 0 mm 3 m/S 749 mmHg 88%
22:00 +25°C° 0 mm 3 m/S 749 mmHg 90%
23:00 +24°C° 0 mm 2 m/S 749 mmHg 92%

24 Juni, Donnerstag

Zeit Temperatur Niederschläge Wind Luftdruck Luftfeuchtigkeit
00:00 +23°C° 0 mm 2 m/S 749 mmHg 92%
01:00 +23°C° 0 mm 2 m/S 749 mmHg 92%
02:00 +21°C° 0 mm 2 m/S 750 mmHg 92%
03:00 +21°C° 0 mm 2 m/S 750 mmHg 91%
04:00 +23°C° 0 mm 2 m/S 750 mmHg 89%
05:00 +23°C° 0 mm 2 m/S 750 mmHg 88%
06:00 +24°C° 0 mm 2 m/S 750 mmHg 81%
07:00 +26°C° 0 mm 3 m/S 750 mmHg 73%
08:00 +27°C° 0 mm 3 m/S 750 mmHg 66%
09:00 +28°C° 0 mm 3 m/S 750 mmHg 65%
10:00 +28°C° 0 mm 3 m/S 750 mmHg 64%
11:00 +29°C° 0 mm 3 m/S 750 mmHg 63%
12:00 +29°C° 0 mm 3 m/S 750 mmHg 62%
13:00 +30°C° 0 mm 3 m/S 750 mmHg 61%
14:00 +30°C° 0 mm 3 m/S 750 mmHg 59%
15:00 +31°C° 0 mm 3 m/S 750 mmHg 60%
16:00 +31°C° 0 mm 3 m/S 749 mmHg 61%
17:00 +31°C° 0 mm 3 m/S 749 mmHg 62%
18:00 +29°C° 0 mm 3 m/S 749 mmHg 70%
19:00 +28°C° 0 mm 3 m/S 749 mmHg 77%
20:00 +26°C° 0 mm 3 m/S 748 mmHg 85%
21:00 +25°C° 0 mm 2 m/S 749 mmHg 87%
22:00 +25°C° 0 mm 2 m/S 749 mmHg 89%
23:00 +24°C° 0 mm 2 m/S 749 mmHg 91%

25 Juni, Freitag

Zeit Temperatur Niederschläge Wind Luftdruck Luftfeuchtigkeit
00:00 +24°C° 0 mm 2 m/S 749 mmHg 91%
01:00 +23°C° 0 mm 2 m/S 749 mmHg 91%
02:00 +23°C° 0 mm 2 m/S 749 mmHg 92%
03:00 +23°C° 0 mm 2 m/S 749 mmHg 91%
04:00 +24°C° 0 mm 2 m/S 749 mmHg 90%
05:00 +24°C° 0 mm 2 m/S 748 mmHg 89%
06:00 +25°C° 0 mm 2 m/S 748 mmHg 83%
07:00 +27°C° 0 mm 3 m/S 748 mmHg 77%
08:00 +28°C° 0 mm 3 m/S 748 mmHg 71%
09:00 +29°C° 0 mm 3 m/S 749 mmHg 67%
10:00 +30°C° 0 mm 3 m/S 749 mmHg 62%
11:00 +32°C° 0 mm 4 m/S 749 mmHg 57%
12:00 +33°C° 0 mm 3 m/S 748 mmHg 55%
13:00 +33°C° 0 mm 3 m/S 748 mmHg 53%
14:00 +34°C° 0 mm 3 m/S 748 mmHg 51%
15:00 +33°C° 0 mm 3 m/S 748 mmHg 54%
16:00 +33°C° 0 mm 3 m/S 748 mmHg 57%
17:00 +33°C° 0 mm 3 m/S 747 mmHg 60%
18:00 +30°C° 0 mm 3 m/S 747 mmHg 67%
19:00 +28°C° 0 mm 3 m/S 747 mmHg 73%
20:00 +26°C° 0 mm 3 m/S 746 mmHg 80%
21:00 +26°C° 0 mm 2 m/S 746 mmHg 81%
22:00 +25°C° 0 mm 2 m/S 746 mmHg 83%
23:00 +24°C° 0 mm 2 m/S 747 mmHg 84%

26 Juni, Samstag

Zeit Temperatur Niederschläge Wind Luftdruck Luftfeuchtigkeit
00:00 +24°C° 0 mm 2 m/S 747 mmHg 85%
01:00 +24°C° 0 mm 2 m/S 746 mmHg 87%
02:00 +23°C° 0 mm 2 m/S 746 mmHg 88%
03:00 +23°C° 0 mm 2 m/S 746 mmHg 88%
04:00 +23°C° 0 mm 2 m/S 746 mmHg 88%
05:00 +23°C° 0 mm 2 m/S 746 mmHg 88%
06:00 +25°C° 0 mm 1 m/S 746 mmHg 82%
07:00 +27°C° 0 mm 1 m/S 746 mmHg 76%
08:00 +29°C° 0 mm 1 m/S 746 mmHg 69%
09:00 +30°C° 0.1 mm 1 m/S 746 mmHg 65%
10:00 +31°C° 0.1 mm 2 m/S 746 mmHg 61%
11:00 +32°C° 0.1 mm 2 m/S 746 mmHg 56%
12:00 +34°C° 0 mm 2 m/S 746 mmHg 53%
13:00 +34°C° 0 mm 2 m/S 746 mmHg 51%
14:00 +34°C° 0 mm 2 m/S 745 mmHg 48%
15:00 +34°C° 0 mm 2 m/S 745 mmHg 51%
16:00 +32°C° 0 mm 2 m/S 744 mmHg 55%
17:00 +33°C° 0 mm 3 m/S 744 mmHg 59%
18:00 +28°C° 2 mm 3 m/S 744 mmHg 70%
19:00 +23°C° 2 mm 4 m/S 745 mmHg 82%
20:00 +19°C° 2 mm 5 m/S 745 mmHg 93%
21:00 +19°C° 0.4 mm 4 m/S 745 mmHg 93%
22:00 +19°C° 0.4 mm 4 m/S 745 mmHg 93%
23:00 +19°C° 0.4 mm 3 m/S 744 mmHg 92%
Mehr zeigen

Wir brauchen deine Erlaubnis

Meteoprog und unser Service Anbieter werden persönliche Daten aufbewahren, so wie Cookies, Geräte Bezeichnung oder ähnliche Technologien von deinem Gerät und Prozess, so wie Persönliche Daten Inhalte und Werbungen, genauso wie social Media und den Verkehr zu analysieren.

  • Aufbewahrung und/oder Zugang zu deiner Geräte Informationen.

    Cookies, Geräte Bezeichnung oder andere Informationen, können aufbewahrt oder Zugang zu deinem Gerät erhalten, für den Grund, der oben angegeben wird.

  • Personalisierte Werbung und Inhalte, Messungen, Einblick in das Publikum und Produkt Entwicklung.

    Werbungen und Inhalte können personalisiert werden, basierend auf ein Profil. Mehr Daten können besser personalisierte Werbungen und Inhalte hinzufügen. Werbung und Inhalte können gezeigt und gemessen werden. Einblicke über das Publikum, welche die Werbung gesehen haben und den Inhalt, können abgeleitet werden. So wie Daten können genutzt werden, um es zu verbessern oder die Benutzer Erfahrung zu verbessern das System und die Software.

Wenn du “Ich stimme zu” klickst, erlaubst du uns, die Cookies zu benutzen die Geräte Bezeichnung, den Web oder ähnliche Technologien zu benutzen. Deine Settings, können in deinem Gerät bei deinem Browser geändert werden.

Für den bestimmten Zweck, berechtigten Interessen beruhen darauf, mehr als auf den Inhalt. Du kannst mehr darüber in unseren Privaten und Cookie Politik lesen.